{"data":{"norad_id":56305,"epoch":"2026-05-25T00:14:27.507840Z","epoch_age_seconds":64338,"freshness":"FRESH","line1":"1 56305U 23056V   26145.01004060 -.00009821  00000+0 -34841-3 0  9998","line2":"2 56305  43.0059 137.6854 0003995 293.9753  66.0680 15.27513348171778","mean_motion":15.27513348,"eccentricity":0.0003995,"inclination_deg":43.0059,"raan_deg":137.6854,"arg_perigee_deg":293.9753,"mean_anomaly_deg":66.068,"bstar":-0.00034841,"rev_number":17177,"period_min":94.270861978746,"perigee_km":480.50755978216,"apogee_km":485.98980694317,"semimajor_km":6861.3856833627,"source":"CELESTRAK","updated_at":"2026-05-25T13:38:17.998013Z"}}